GW4049 Weather Reports


time (UTC)temp
F
wind
direction
speed
knots
gust
knots
rain 1hr
in
rain 24hr
in
rain mn
in
humidity
%
barometer
mb
20260902204318 66 234 0.0 3.5 0.00 0.00 0.00 52 1031.0
20260902203814 66 87 1.7 2.6 0.00 0.00 0.00 40 1031.0
20260902203309 66 260 1.7 3.5 0.00 0.00 0.00 41 1031.0
20260902202808 66 232 1.7 2.6 0.00 0.00 0.00 40 1031.2
20260902202306 66 319 0.9 2.6 0.00 0.00 0.00 41 1031.2
20260902201801 67 220 1.7 3.5 0.00 0.00 0.00 40 1031.2
20260902201300 66 197 1.7 2.6 0.00 0.00 0.00 40 1031.2
20260902200756 66 130 0.9 1.7 0.00 0.00 0.00 41 1031.4
20260902200251 66 283 1.7 6.1 0.00 0.00 0.00 41 1031.0
20260902195746 68 260 0.9 2.6 0.00 0.00 0.00 40 1031.2
20260902195245 68 233 1.7 5.2 0.00 0.00 0.00 37 1031.4
20260902194740 68 162 2.6 2.6 0.00 0.00 0.00 38 1031.5
20260902194235 68 175 3.5 5.2 0.00 0.00 0.00 38 1031.4
20260902193731 66 156 4.3 9.6 0.00 0.00 0.00 39 1031.4
20260902193226 66 128 4.3 7.0 0.00 0.00 0.00 41 1031.4
20260902192724 67 154 2.6 3.5 0.00 0.00 0.00 39 1031.6
20260902192218 68 217 1.7 7.0 0.00 0.00 0.00 37 1031.2
20260902191712 67 72 3.5 5.2 0.00 0.00 0.00 40 1031.5
20260902191207 67 262 0.9 2.6 0.00 0.00 0.00 39 1031.5
20260902190702 66 277 0.0 6.1 0.00 0.00 0.00 40 1031.5
20260902190157 66 314 4.3 7.0 0.00 0.00 0.00 40 1031.9
20260902185653 67 18 3.5 7.8 0.00 0.00 0.00 38 1031.8
20260902185149 67 278 2.6 5.2 0.00 0.00 0.00 37 1031.9
20260902184649 69 196 1.7 6.1 0.00 0.00 0.00 38 1032.0
20260902184145 68 92 5.2 7.0 0.00 0.00 0.00 37 1031.8
20260902183640 68 8 0.9 7.8 0.00 0.00 0.00 38 1032.0
20260902183137 69 311 2.6 5.2 0.00 0.00 0.00 35 1031.8
20260902182632 68 58 4.3 7.0 0.00 0.00 0.00 37 1032.0
20260902182129 69 130 2.6 6.1 0.00 0.00 0.00 36 1032.1
20260902181625 70 92 6.1 7.8 0.00 0.00 0.00 34 1032.3
20260902181124 69 218 0.9 8.7 0.00 0.00 0.00 38 1032.1
20260902180618 69 130 3.5 3.5 0.00 0.00 0.00 36 1032.3
20260902180115 67 136 5.2 8.7 0.00 0.00 0.00 37 1032.4
20260902175614 69 3 6.1 7.8 0.00 0.00 0.00 35 1032.7
20260902175110 67 10 5.2 7.0 0.00 0.00 0.00 37 1032.7
20260902174606 68 286 1.7 6.1 0.00 0.00 0.00 36 1032.8
20260902174101 66 359 2.6 6.1 0.00 0.00 0.00 39 1032.8
20260902173555 67 57 5.2 7.8 0.00 0.00 0.00 37 1032.7
20260902173051 67 124 0.9 6.1 0.00 0.00 0.00 37 1032.5
20260902172544 68 271 0.0 6.1 0.00 0.00 0.00 38 1032.8
20260902172039 67 358 4.3 6.1 0.00 0.00 0.00 37 1032.7
20260902171535 66 158 2.6 7.0 0.00 0.00 0.00 38 1032.8
20260902171031 66 144 6.1 11.3 0.00 0.00 0.00 40 1032.9
20260902170526 66 49 1.7 9.6 0.00 0.00 0.00 40 1032.7
20260902170022 65 156 4.3 7.8 0.00 0.00 0.00 40 1032.7
20260902165516 66 83 5.2 7.8 0.00 0.00 0.00 39 1032.8
20260902165015 68 231 0.9 2.6 0.00 0.00 0.00 39 1032.7
20260902164511 66 21 3.5 3.5 0.00 0.00 0.00 38 1032.9
20260902164009 65 74 3.5 6.1 0.00 0.00 0.00 37 1032.7
20260902163506 66 26 7.0 8.7 0.00 0.00 0.00 38 1032.8
20260902163003 65 70 3.5 9.6 0.00 0.00 0.00 41 1032.8
20260902162458 67 253 0.9 1.7 0.00 0.00 0.00 39 1032.9
20260902161958 66 220 0.0 3.5 0.00 0.00 0.00 40 1032.9
20260902161448 66 182 3.5 5.2 0.00 0.00 0.00 40 1032.8
20260902160944 64 127 2.6 6.1 0.00 0.00 0.00 43 1032.8
20260902160439 63 231 1.7 5.2 0.00 0.00 0.00 45 1032.9
20260902155936 63 358 2.6 7.0 0.00 0.00 0.00 45 1032.8
20260902155433 64 194 0.0 3.5 0.00 0.00 0.00 44 1032.8
20260902154926 64 52 0.9 5.2 0.00 0.00 0.00 44 1032.9
20260902154422 64 333 2.6 7.8 0.00 0.00 0.00 45 1032.7
20260902153922 64 124 5.2 7.8 0.00 0.00 0.00 42 1032.8
20260902153420 64 248 1.7 3.5 0.00 0.00 0.00 44 1032.5
20260902152916 63 54 2.6 6.1 0.00 0.00 0.00 44 1032.7
20260902152412 63 300 0.9 3.5 0.00 0.00 0.00 45 1032.3
20260902151907 63 223 0.9 3.5 0.00 0.00 0.00 44 1032.5
20260902151402 63 59 2.6 2.6 0.00 0.00 0.00 43 1032.4
20260902150857 64 264 0.0 2.6 0.00 0.00 0.00 42 1032.4
20260902150353 63 225 1.7 3.5 0.00 0.00 0.00 43 1032.5
20260902145852 63 188 4.3 5.2 0.00 0.00 0.00 42 1032.3
20260902145348 62 127 2.6 5.2 0.00 0.00 0.00 42 1032.4
20260902144842 62 182 1.7 3.5 0.00 0.00 0.00 44 1032.3
20260902144338 62 189 3.5 5.2 0.00 0.00 0.00 42 1032.4
20260902143833 62 239 0.9 5.2 0.00 0.00 0.00 42 1032.5
20260902143327 61 204 2.6 2.6 0.00 0.00 0.00 41 1032.5
20260902142823 61 233 1.7 3.5 0.00 0.00 0.00 41 1032.7
20260902142320 61 235 2.6 5.2 0.00 0.00 0.00 42 1032.5
20260902141814 61 254 0.0 2.6 0.00 0.00 0.00 43 1032.5
20260902141310 60 200 0.9 3.5 0.00 0.00 0.00 44 1032.3
20260902140809 60 207 1.7 1.7 0.00 0.00 0.00 50 1032.1
20260902140305 60 254 1.7 6.1 0.00 0.00 0.00 44 1032.3
20260902135804 60 248 1.7 3.5 0.00 0.00 0.00 43 1032.1
20260902135300 59 240 0.0 0.0 0.00 0.00 0.00 53 1032.3
20260902134759 59 238 0.9 0.9 0.00 0.00 0.00 51 1032.3
20260902134255 58 258 0.9 7.0 0.00 0.00 0.00 47 1032.5
20260902133750 55 249 0.0 0.9 0.00 0.00 0.00 52 1032.3
20260902133249 55 240 0.9 0.9 0.00 0.00 0.00 53 1032.3
20260902132745 55 236 0.9 1.7 0.00 0.00 0.00 52 1032.1
20260902132240 56 234 0.9 1.7 0.00 0.00 0.00 50 1032.1
20260902131736 56 239 0.9 1.7 0.00 0.00 0.00 48 1032.4
20260902131232 56 206 3.5 3.5 0.00 0.00 0.00 45 1032.0
20260902130731 55 208 2.6 3.5 0.00 0.00 0.00 48 1032.3
20260902130227 54 252 0.9 3.5 0.00 0.00 0.00 46 1032.3
20260902125723 52 239 0.9 1.7 0.00 0.00 0.00 52 1032.3
20260902125219 52 234 0.9 1.7 0.00 0.00 0.00 51 1032.1
20260902124715 50 213 0.9 3.5 0.00 0.00 0.00 51 1032.0
20260902124209 49 205 2.6 3.5 0.00 0.00 0.00 51 1032.0
20260902123704 49 212 2.6 2.6 0.00 0.00 0.00 57 1031.6
20260902123201 50 197 2.6 2.6 0.00 0.00 0.00 53 1031.8
20260902122659 50 202 3.5 3.5 0.00 0.00 0.00 53 1031.9
20260902122156 50 203 3.5 3.5 0.00 0.00 0.00 53 1031.8
20260902121650 50 216 1.7 2.6 0.00 0.00 0.00 54 1031.6
20260902121144 50 212 2.6 2.6 0.00 0.00 0.00 50 1031.5
20260902120641 51 212 1.7 2.6 0.00 0.00 0.00 50 1031.8
20260902120137 51 228 1.7 2.6 0.00 0.00 0.00 51 1031.5
20260902115631 51 218 1.7 2.6 0.00 0.00 0.00 47 1031.9
20260902115127 53 225 2.6 2.6 0.00 0.00 0.00 43 1031.6
20260902114623 52 204 2.6 3.5 0.00 0.00 0.00 46 1031.9
20260902114123 50 189 3.5 5.2 0.00 0.00 0.00 48 1031.6
20260902113613 48 200 3.5 3.5 0.00 0.00 0.00 55 1031.6
20260902113108 49 205 2.6 2.6 0.00 0.00 0.00 57 1031.8
20260902112604 48 204 2.6 3.5 0.00 0.00 0.00 56 1031.6
20260902112100 48 201 2.6 2.6 0.00 0.00 0.00 61 1031.6
20260902111556 49 214 2.6 2.6 0.00 0.00 0.00 60 1031.6
20260902111051 50 209 2.6 2.6 0.00 0.00 0.00 60 1031.6
20260902110547 51 210 2.6 2.6 0.00 0.00 0.00 60 1031.6
20260902110043 49 209 2.6 3.5 0.00 0.00 0.00 61 1031.8
20260902105537 50 258 0.0 0.9 0.00 0.00 0.00 65 1031.8
20260902105032 50 207 2.6 2.6 0.00 0.00 0.00 64 1031.6
20260902104528 51 211 2.6 2.6 0.00 0.00 0.00 63 1031.8
20260902104027 51 234 1.7 2.6 0.00 0.00 0.00 60 1031.8
20260902103522 50 233 1.7 2.6 0.00 0.00 0.00 65 1031.6
20260902103018 51 214 1.7 3.5 0.00 0.00 0.00 66 1031.8
20260902102514 51 204 3.5 3.5 0.00 0.00 0.00 66 1031.8
20260902102011 50 206 2.6 3.5 0.00 0.00 0.00 69 1031.5
20260902101506 51 210 1.7 2.6 0.00 0.00 0.00 71 1031.6
20260902101004 50 218 1.7 2.6 0.00 0.00 0.00 72 1031.8
20260902100459 50 225 1.7 1.7 0.00 0.00 0.00 73 1031.8
20260902095954 50 220 1.7 1.7 0.00 0.00 0.00 74 1031.8
20260902095448 50 208 2.6 2.6 0.00 0.00 0.00 74 1031.9
20260902094948 50 207 2.6 2.6 0.00 0.00 0.00 74 1031.6
20260902094443 50 211 2.6 2.6 0.00 0.00 0.00 74 1031.8
20260902093938 50 204 2.6 2.6 0.00 0.00 0.00 73 1031.8
20260902093433 51 207 2.6 2.6 0.00 0.00 0.00 71 1031.9
20260902092932 51 211 2.6 2.6 0.00 0.00 0.00 71 1031.9
20260902092428 51 207 2.6 2.6 0.00 0.00 0.00 70 1031.9
20260902091928 52 204 2.6 2.6 0.00 0.00 0.00 69 1032.0
20260902091423 52 208 2.6 3.5 0.00 0.00 0.00 69 1031.9
20260902090919 53 208 3.5 3.5 0.00 0.00 0.00 68 1031.8
20260902090414 52 199 2.6 3.5 0.00 0.00 0.00 68 1031.9
20260902085913 52 208 2.6 2.6 0.00 0.00 0.00 69 1032.1
20260902085408 52 218 1.7 2.6 0.00 0.00 0.00 69 1032.0
20260902084903 51 201 1.7 2.6 0.00 0.00 0.00 69 1031.8
20260902084400 51 204 2.6 2.6 0.00 0.00 0.00 70 1032.1
20260902083855 51 203 2.6 2.6 0.00 0.00 0.00 70 1032.0
20260902083355 51 206 2.6 3.5 0.00 0.00 0.00 70 1032.0
20260902082850 51 208 2.6 2.6 0.00 0.00 0.00 71 1031.9
20260902082346 51 205 2.6 2.6 0.00 0.00 0.00 70 1032.0
20260902081843 51 202 2.6 3.5 0.00 0.00 0.00 68 1031.8
20260902081338 51 211 1.7 3.5 0.00 0.00 0.00 68 1031.9
20260902080833 51 204 2.6 2.6 0.00 0.00 0.00 69 1032.1
20260902080330 52 205 2.6 2.6 0.00 0.00 0.00 69 1032.1
20260902075828 52 214 2.6 2.6 0.00 0.00 0.00 68 1032.1
20260902075325 52 206 2.6 2.6 0.00 0.00 0.00 68 1032.5
20260902074820 52 201 3.5 3.5 0.00 0.00 0.00 67 1032.4
20260902074315 53 210 2.6 2.6 0.00 0.00 0.00 66 1032.3
20260902073810 53 202 2.6 3.5 0.00 0.00 0.00 66 1032.0
20260902073306 53 200 2.6 2.6 0.00 0.00 0.00 66 1032.1
20260902072803 53 212 2.6 2.6 0.00 0.00 0.00 66 1032.0
20260902072257 52 207 2.6 2.6 0.00 0.00 0.00 66 1032.0
20260902071754 53 209 2.6 2.6 0.00 0.00 0.00 66 1032.3
20260902071249 53 208 2.6 2.6 0.00 0.00 0.00 66 1032.0
20260902070745 52 206 2.6 3.5 0.00 0.00 0.00 65 1032.3
20260902070245 52 202 3.5 3.5 0.00 0.00 0.00 66 1032.1
20260902065743 52 201 2.6 3.5 0.00 0.00 0.00 66 1032.0
20260902065239 52 208 2.6 2.6 0.00 0.00 0.00 68 1032.0
20260902064734 52 208 2.6 2.6 0.00 0.00 0.00 68 1032.1
20260902064230 52 208 2.6 2.6 0.00 0.00 0.00 67 1032.3
20260902063726 51 213 2.6 2.6 0.00 0.00 0.00 67 1032.0
20260902063226 52 209 2.6 2.6 0.00 0.00 0.00 68 1032.3
20260902062720 52 204 2.6 2.6 0.00 0.00 0.00 68 1032.0
20260902062215 52 206 2.6 2.6 0.00 0.00 0.00 68 1032.4
20260902061714 52 205 2.6 2.6 0.00 0.00 0.00 68 1032.1
20260902061209 52 211 2.6 2.6 0.00 0.00 0.00 67 1032.1
20260902060706 52 208 2.6 2.6 0.00 0.00 0.00 67 1032.3
20260902060202 52 211 2.6 2.6 0.00 0.00 0.00 67 1032.1
20260902055657 52 212 2.6 2.6 0.00 0.05 0.05 67 1032.1
20260902055153 52 212 2.6 2.6 0.00 0.05 0.05 67 1032.3
20260902054648 52 212 2.6 2.6 0.00 0.05 0.05 68 1032.4
20260902054143 52 215 2.6 2.6 0.00 0.05 0.05 69 1032.4
20260902053633 52 207 2.6 2.6 0.00 0.05 0.05 67 1032.4
20260902053132 51 208 2.6 2.6 0.00 0.05 0.05 68 1032.3
20260902052627 51 208 2.6 2.6 0.00 0.05 0.05 70 1032.1
20260902052123 51 206 2.6 2.6 0.00 0.05 0.05 71 1032.1
20260902051622 52 209 2.6 2.6 0.00 0.05 0.05 69 1032.3
20260902051121 52 213 1.7 1.7 0.00 0.05 0.05 70 1032.3
20260902050616 52 209 2.6 2.6 0.00 0.05 0.05 69 1032.4
20260902050111 52 211 2.6 2.6 0.00 0.05 0.05 70 1032.1
20260902045607 53 208 2.6 2.6 0.00 0.05 0.05 69 1032.3
20260902045103 53 211 2.6 2.6 0.00 0.05 0.05 68 1032.4
20260902044602 53 222 1.7 2.6 0.00 0.05 0.05 69 1032.4
20260902044058 53 205 2.6 2.6 0.00 0.05 0.05 68 1032.4
20260902043548 53 216 1.7 2.6 0.00 0.05 0.05 68 1032.4
20260902043042 53 231 1.7 1.7 0.00 0.05 0.05 67 1032.7
20260902042536 54 224 1.7 1.7 0.00 0.05 0.05 66 1032.5
20260902042031 54 237 0.9 1.7 0.00 0.05 0.05 67 1032.7
20260902041525 54 234 1.7 1.7 0.00 0.05 0.05 67 1032.7
20260902041020 55 252 0.0 0.9 0.00 0.05 0.05 66 1032.7
20260902040514 53 255 0.0 0.9 0.00 0.05 0.05 66 1032.8
20260902040009 53 225 0.9 2.6 0.00 0.05 0.05 68 1032.3
20260902035503 53 215 2.6 2.6 0.00 0.05 0.05 69 1032.3
20260902035002 53 207 1.7 1.7 0.00 0.05 0.05 71 1032.5
20260902034457 53 208 2.6 2.6 0.00 0.05 0.05 71 1032.8
20260902033951 53 206 1.7 2.6 0.00 0.05 0.05 72 1032.5
20260902033450 53 215 1.7 2.6 0.00 0.05 0.05 70 1032.4
20260902032949 53 204 1.7 2.6 0.00 0.05 0.05 70 1032.5
20260902032444 53 212 1.7 2.6 0.00 0.05 0.05 69 1032.5
20260902031938 53 210 2.6 2.6 0.00 0.05 0.05 70 1032.8
20260902031428 53 212 2.6 2.6 0.00 0.05 0.05 68 1032.7
20260902030924 54 230 1.7 1.7 0.00 0.05 0.05 70 1032.4
20260902030419 54 228 1.7 1.7 0.00 0.05 0.05 69 1032.7
20260902025917 55 223 1.7 2.6 0.00 0.05 0.05 68 1032.3
20260902025413 55 216 1.7 2.6 0.00 0.05 0.05 66 1032.5
20260902024908 55 228 1.7 1.7 0.00 0.05 0.05 64 1032.4
20260902024403 55 218 1.7 1.7 0.00 0.05 0.05 66 1032.3
20260902023859 54 218 2.6 2.6 0.00 0.05 0.05 68 1032.1
20260902023354 54 207 2.6 2.6 0.00 0.05 0.05 67 1032.3
20260902022853 54 199 2.6 2.6 0.00 0.05 0.05 67 1032.1
20260902022348 54 210 2.6 2.6 0.00 0.05 0.05 68 1031.9
20260902021844 54 212 1.7 2.6 0.00 0.05 0.05 69 1031.8
20260902021339 54 213 1.7 2.6 0.00 0.05 0.05 68 1031.9
20260902020834 55 217 1.7 1.7 0.00 0.05 0.05 67 1031.8
20260902020331 55 221 1.7 1.7 0.00 0.05 0.05 67 1032.0
20260902015826 55 223 1.7 2.6 0.00 0.05 0.05 67 1031.6
20260902015322 55 212 1.7 2.6 0.00 0.05 0.05 66 1031.8
20260902014817 55 216 1.7 2.6 0.00 0.05 0.05 66 1031.6
20260902014314 55 213 1.7 2.6 0.00 0.05 0.05 67 1031.5
20260902013812 55 208 2.6 2.6 0.00 0.05 0.05 66 1031.8
20260902013308 56 211 2.6 2.6 0.00 0.05 0.05 68 1031.6
20260902012803 56 216 1.7 2.6 0.00 0.05 0.05 67 1031.6
20260902012259 56 220 1.7 1.7 0.00 0.05 0.05 70 1031.6
20260902011754 56 212 1.7 2.6 0.00 0.05 0.05 71 1031.8
20260902011254 57 220 1.7 1.7 0.00 0.05 0.05 67 1031.9
20260902010748 57 224 1.7 1.7 0.00 0.05 0.05 70 1032.0
20260902010244 56 219 1.7 1.7 0.00 0.05 0.05 71 1031.8
20260902005742 56 221 1.7 1.7 0.00 0.05 0.05 72 1032.0
20260902005238 56 224 1.7 2.6 0.00 0.05 0.05 79 1031.8
20260902004737 56 218 1.7 1.7 0.00 0.05 0.05 78 1031.8
20260902004232 55 211 2.6 2.6 0.00 0.05 0.05 78 1031.9
20260902003727 56 233 1.7 1.7 0.00 0.05 0.05 82 1031.9
20260902003223 56 237 0.9 1.7 0.00 0.05 0.05 85 1032.1
20260902002718 57 227 1.7 1.7 0.00 0.05 0.05 86 1031.6
20260902002218 59 228 1.7 1.7 0.00 0.05 0.05 78 1031.8
20260902001713 61 240 0.9 0.9 0.00 0.05 0.05 66 1031.8
20260902001208 63 248 0.9 0.9 0.00 0.05 0.05 56 1031.9
20260902000703 63 254 0.0 0.0 0.00 0.05 0.05 56 1032.0
20260902000158 64 271 0.0 0.0 0.00 0.05 0.05 50 1031.6
20260901235657 64 261 0.0 0.0 0.00 0.05 0.05 52 1031.9
20260901235153 64 250 0.0 1.7 0.00 0.05 0.05 49 1031.8
20260901234652 64 257 0.0 0.0 0.00 0.05 0.05 51 1031.8
20260901234147 64 285 0.9 0.9 0.00 0.05 0.05 50 1031.9
20260901233642 64 275 0.0 0.9 0.00 0.05 0.05 51 1031.9
20260901233138 64 248 0.0 0.0 0.00 0.05 0.05 51 1031.8
20260901232638 64 267 0.0 1.7 0.00 0.05 0.05 53 1031.8
20260901232133 64 253 0.0 0.9 0.00 0.05 0.05 51 1031.6
20260901231630 64 266 0.9 2.6 0.00 0.05 0.05 57 1031.8
20260901231126 64 307 2.6 2.6 0.00 0.05 0.05 49 1031.9
20260901230621 64 338 0.0 3.5 0.00 0.05 0.05 49 1031.8
20260901230121 64 67 1.7 7.0 0.00 0.05 0.05 49 1031.8
20260901225616 65 25 2.6 5.2 0.00 0.05 0.05 48 1031.5
20260901225116 66 242 0.0 2.6 0.00 0.05 0.05 46 1031.5
20260901224612 67 263 0.0 3.5 0.00 0.05 0.05 41 1031.8
20260901224108 67 256 0.9 1.7 0.00 0.05 0.05 42 1031.8
20260901223603 66 324 0.9 2.6 0.00 0.05 0.05 42 1031.8
20260901223058 64 331 0.9 2.6 0.00 0.05 0.05 46 1031.6
20260901222554 64 276 0.9 2.6 0.00 0.05 0.05 46 1031.5
20260901222050 64 49 1.7 3.5 0.00 0.05 0.05 47 1031.6
20260901221546 64 267 0.9 2.6 0.00 0.05 0.05 45 1031.9
20260901221041 64 272 0.0 2.6 0.00 0.05 0.05 46 1031.6
20260901220541 64 332 0.0 2.6 0.00 0.05 0.05 46 1032.1
20260901220040 64 351 1.7 7.0 0.00 0.05 0.05 46 1031.8
20260901215538 64 10 3.5 6.1 0.00 0.05 0.05 44 1031.9
20260901215032 65 302 4.3 7.0 0.00 0.05 0.05 44 1032.0
20260901214531 65 283 3.5 7.0 0.00 0.05 0.05 44 1032.3
20260901214026 64 348 3.5 3.5 0.00 0.05 0.05 45 1032.0
20260901213525 65 10 1.7 2.6 0.00 0.05 0.05 44 1032.1
20260901213020 65 307 2.6 6.1 0.00 0.05 0.05 44 1032.0
20260901212520 65 318 1.7 5.2 0.00 0.05 0.05 46 1032.3
20260901212017 66 260 0.9 0.9 0.00 0.05 0.05 43 1032.3
20260901211511 66 340 7.8 12.2 0.00 0.05 0.05 43 1032.3
20260901211008 66 317 7.8 11.3 0.00 0.05 0.05 44 1032.0
20260901210503 66 3 7.8 11.3 0.00 0.05 0.05 44 1032.1
20260901205959 67 294 7.8 11.3 0.00 0.05 0.05 43 1032.0
20260901205454 65 327 6.1 11.3 0.00 0.05 0.05 44 1032.4
20260901204948 64 303 4.3 7.8 0.00 0.05 0.05 49 1032.3